QPF
0.02 0.01 0.01 0.01 0.01 0.01 0.01 0.01 0.00 0.00 0.00 0.00 0.00 0.00 0.00 0.00 0.00 0.01 0.01 0.01 0.01 0.02 0.03 0.05 0.04 0.04 0.03 0.05 0.07 0.06 0.06 0.07 0.08 0.07 0.08 0.09 0.08 0.06 0.04 0.03 0.03 0.04 0.05 0.07
0.01 0.01 0.00 0.01 0.01 0.01 0.01 0.01 0.01 0.01 0.00 0.00 0.00 0.00 0.00 0.00 0.00 0.00 0.01 0.01 0.01 0.02 0.02 0.02 0.03 0.03 0.02 0.03 0.05 0.07 0.08 0.09 0.09 0.07 0.07 0.07 0.07 0.04 0.03 0.02 0.02 0.03 0.04 0.05
0.01 0.00 0.00 0.01 0.01 0.01 0.01 0.00 0.00 0.01 0.01 0.01 0.00 0.00 0.00 0.00 0.00 0.01 0.01 0.01 0.01 0.02 0.02 0.02 0.02 0.03 0.02 0.03 0.05 0.06 0.09 0.11 0.09 0.07 0.07 0.06 0.06 0.04 0.03 0.02 0.02 0.02 0.03 0.04
0.01 0.00 0.00 0.01 0.01 0.01 0.01 0.00 0.00 0.01 0.02 0.02 0.01 0.01 0.01 0.01 0.01 0.01 0.01 0.01 0.01 0.02 0.02 0.01 0.02 0.03 0.04 0.04 0.06 0.07 0.09 0.11 0.09 0.08 0.07 0.06 0.06 0.03 0.03 0.02 0.02 0.02 0.02 0.03
0.01 0.00 0.01 0.01 0.01 0.01 0.00 0.00 0.01 0.01 0.02 0.02 0.01 0.02 0.01 0.01 0.01 0.01 0.01 0.01 0.01 0.01 0.02 0.02 0.03 0.04 0.05 0.06 0.06 0.07 0.09 0.09 0.09 0.10 0.11 0.07 0.06 0.04 0.03 0.04 0.02 0.02 0.01 0.02
0.01 0.00 0.01 0.01 0.01 0.00 0.01 0.01 0.01 0.01 0.02 0.02 0.01 0.01 0.01 0.01 0.00 0.01 0.01 0.01 0.01 0.01 0.02 0.03 0.04 0.05 0.07 0.08 0.08 0.08 0.09 0.08 0.09 0.09 0.10 0.09 0.08 0.07 0.04 0.04 0.03 0.01 0.01 0.02
0.01 0.00 0.01 0.01 0.01 0.01 0.01 0.01 0.03 0.03 0.03 0.02 0.00 0.01 0.02 0.01 0.01 0.01 0.02 0.01 0.01 0.01 0.02 0.03 0.04 0.06 0.08 0.08 0.07 0.08 0.08 0.07 0.07 0.08 0.09 0.10 0.08 0.09 0.06 0.03 0.03 0.02 0.01 0.01
0.02 0.01 0.01 0.01 0.01 0.01 0.01 0.01 0.03 0.03 0.02 0.01 0.00 0.01 0.02 0.01 0.01 0.01 0.01 0.02 0.01 0.01 0.02 0.02 0.04 0.06 0.07 0.06 0.06 0.07 0.08 0.06 0.06 0.07 0.07 0.10 0.07 0.07 0.07 0.04 0.03 0.02 0.01 0.01
0.02 0.01 0.01 0.01 0.01 0.01 0.01 0.01 0.01 0.02 0.02 0.02 0.01 0.01 0.02 0.02 0.01 0.01 0.01 0.01 0.01 0.01 0.02 0.02 0.03 0.03 0.04 0.04 0.04 0.05 0.06 0.05 0.05 0.06 0.06 0.08 0.09 0.05 0.06 0.05 0.04 0.03 0.02 0.01
0.02 0.03 0.02 0.02 0.02 0.01 0.01 0.01 0.01 0.02 0.02 0.01 0.01 0.01 0.02 0.02 0.01 0.01 0.02 0.01 0.01 0.01 0.01 0.02 0.02 0.02 0.03 0.03 0.03 0.03 0.04 0.04 0.05 0.08 0.06 0.06 0.07 0.04 0.05 0.05 0.04 0.03 0.03 0.02
0.03 0.03 0.03 0.03 0.02 0.01 0.01 0.01 0.01 0.02 0.02 0.02 0.01 0.02 0.02 0.01 0.01 0.02 0.02 0.02 0.01 0.01 0.01 0.01 0.02 0.02 0.02 0.03 0.03 0.03 0.03 0.04 0.05 0.10 0.10 0.08 0.07 0.05 0.05 0.06 0.04 0.03 0.03 0.03
0.03 0.03 0.02 0.02 0.01 0.01 0.01 0.01 0.01 0.03 0.03 0.02 0.03 0.03 0.02 0.01 0.01 0.01 0.02 0.02 0.02 0.01 0.01 0.01 0.01 0.01 0.01 0.02 0.02 0.03 0.03 0.03 0.04 0.07 0.09 0.10 0.09 0.06 0.05 0.05 0.04 0.03 0.03 0.02
0.04 0.04 0.03 0.02 0.02 0.02 0.02 0.01 0.01 0.02 0.03 0.03 0.04 0.03 0.02 0.01 0.01 0.02 0.03 0.03 0.03 0.03 0.02 0.02 0.02 0.02 0.02 0.02 0.02 0.02 0.03 0.03 0.04 0.04 0.04 0.06 0.06 0.05 0.05 0.03 0.02 0.01 0.02 0.02
0.05 0.04 0.02 0.02 0.02 0.02 0.01 0.01 0.01 0.03 0.05 0.04 0.04 0.02 0.01 0.01 0.01 0.02 0.03 0.03 0.03 0.03 0.02 0.02 0.02 0.03 0.02 0.03 0.02 0.02 0.03 0.04 0.05 0.04 0.04 0.03 0.03 0.02 0.02 0.02 0.01 0.01 0.01 0.01
0.03 0.03 0.01 0.00 0.00 0.01 0.01 0.01 0.01 0.02 0.03 0.02 0.01 0.01 0.01 0.00 0.00 0.01 0.02 0.03 0.02 0.02 0.02 0.02 0.02 0.03 0.03 0.03 0.02 0.02 0.03 0.03 0.05 0.05 0.04 0.03 0.02 0.02 0.02 0.01 0.01 0.01 0.01 0.01
0.02 0.02 0.01 0.01 0.00 0.01 0.01 0.01 0.00 0.00 0.01 0.01 0.01 0.01 0.00 0.00 0.00 0.00 0.01 0.03 0.02 0.02 0.02 0.02 0.03 0.03 0.03 0.04 0.03 0.02 0.03 0.03 0.04 0.04 0.03 0.03 0.03 0.03 0.03 0.03 0.02 0.02 0.02 0.02
0.01 0.02 0.02 0.01 0.01 0.01 0.01 0.00 0.00 0.00 0.00 0.01 0.01 0.00 0.00 0.00 0.00 0.01 0.01 0.03 0.02 0.02 0.02 0.02 0.03 0.04 0.04 0.04 0.04 0.03 0.03 0.03 0.03 0.03 0.03 0.03 0.03 0.04 0.04 0.05 0.05 0.04 0.03 0.03
0.02 0.02 0.04 0.03 0.01 0.02 0.01 0.00 0.00 0.00 0.01 0.01 0.00 0.00 0.01 0.01 0.01 0.01 0.01 0.02 0.03 0.02 0.02 0.03 0.03 0.03 0.03 0.04 0.04 0.03 0.03 0.03 0.03 0.03 0.04 0.04 0.04 0.04 0.05 0.06 0.08 0.06 0.05 0.05
0.02 0.03 0.04 0.03 0.02 0.01 0.00 0.00 0.00 0.01 0.01 0.01 0.01 0.01 0.01 0.01 0.01 0.01 0.01 0.01 0.03 0.03 0.03 0.04 0.04 0.03 0.03 0.03 0.04 0.04 0.04 0.03 0.03 0.03 0.04 0.04 0.04 0.05 0.06 0.07 0.08 0.07 0.06 0.05
0.01 0.02 0.04 0.04 0.03 0.01 0.00 0.00 0.00 0.01 0.01 0.01 0.01 0.01 0.01 0.01 0.01 0.01 0.01 0.01 0.02 0.03 0.04 0.04 0.03 0.03 0.03 0.03 0.02 0.03 0.03 0.04 0.04 0.04 0.04 0.04 0.04 0.06 0.07 0.07 0.07 0.07 0.06 0.06
0.01 0.02 0.03 0.02 0.02 0.00 0.00 0.00 0.01 0.01 0.01 0.01 0.02 0.02 0.02 0.02 0.01 0.01 0.01 0.01 0.01 0.02 0.03 0.03 0.03 0.02 0.03 0.03 0.02 0.02 0.02 0.03 0.03 0.04 0.04 0.04 0.05 0.05 0.06 0.06 0.06 0.06 0.06 0.06
0.00 0.01 0.01 0.01 0.02 0.00 0.00 0.00 0.01 0.02 0.01 0.01 0.01 0.01 0.01 0.01 0.01 0.01 0.01 0.01 0.01 0.01 0.02 0.02 0.03 0.02 0.02 0.03 0.04 0.03 0.02 0.02 0.03 0.04 0.05 0.06 0.06 0.06 0.06 0.06 0.06 0.06 0.05 0.05
0.00 0.00 0.01 0.01 0.00 0.00 0.00 0.00 0.01 0.01 0.01 0.01 0.01 0.01 0.01 0.01 0.01 0.02 0.01 0.01 0.01 0.01 0.01 0.01 0.02 0.02 0.02 0.03 0.03 0.04 0.04 0.04 0.05 0.05 0.06 0.07 0.08 0.07 0.06 0.06 0.06 0.05 0.05 0.05
0.00 0.00 0.01 0.01 0.00 0.00 0.00 0.01 0.01 0.01 0.01 0.00 0.00 0.00 0.00 0.01 0.01 0.01 0.01 0.01 0.01 0.01 0.01 0.01 0.01 0.01 0.02 0.02 0.03 0.04 0.05 0.06 0.06 0.07 0.08 0.08 0.08 0.08 0.07 0.07 0.06 0.05 0.05 0.05
0.00 0.01 0.01 0.01 0.00 0.01 0.01 0.01 0.01 0.00 0.00 0.00 0.00 0.00 0.00 0.01 0.00 0.00 0.00 0.01 0.01 0.01 0.01 0.01 0.01 0.01 0.02 0.02 0.03 0.04 0.05 0.05 0.06 0.07 0.08 0.08 0.08 0.07 0.06 0.06 0.05 0.06 0.06 0.06
0.00 0.01 0.01 0.01 0.01 0.01 0.01 0.01 0.01 0.00 0.00 0.00 0.00 0.00 0.00 0.00 0.00 0.00 0.00 0.00 0.01 0.01 0.01 0.01 0.01 0.01 0.02 0.02 0.03 0.04 0.05 0.05 0.05 0.06 0.06 0.06 0.07 0.07 0.05 0.05 0.05 0.06 0.07 0.06
MSLP
1023.20 1023.57 1023.92 1024.19 1024.34 1024.33 1024.11 1023.67 1023.01 1022.20 1021.30 1020.41 1019.63 1019.04 1018.68 1018.58 1018.67 1018.89 1019.13 1019.29 1019.29 1019.08 1018.64 1018.00 1017.24 1016.42 1015.62 1014.91 1014.30 1013.82 1013.45 1013.16 1012.91 1012.67 1012.42 1012.15 1011.86 1011.54 1011.19 1010.81 1010.40 1009.94 1009.47 1008.99
1023.79 1023.98 1024.12 1024.21 1024.21 1024.12 1023.89 1023.51 1022.98 1022.31 1021.56 1020.80 1020.09 1019.52 1019.12 1018.94 1018.93 1019.05 1019.21 1019.31 1019.28 1019.06 1018.61 1017.97 1017.19 1016.33 1015.48 1014.70 1014.04 1013.52 1013.14 1012.86 1012.65 1012.46 1012.25 1012.01 1011.71 1011.35 1010.94 1010.48 1009.99 1009.48 1008.97 1008.51
1024.37 1024.33 1024.24 1024.13 1023.99 1023.84 1023.64 1023.37 1023.00 1022.53 1021.95 1021.32 1020.68 1020.10 1019.63 1019.32 1019.16 1019.13 1019.16 1019.18 1019.11 1018.87 1018.45 1017.83 1017.05 1016.18 1015.30 1014.48 1013.77 1013.22 1012.82 1012.55 1012.36 1012.20 1012.03 1011.81 1011.51 1011.12 1010.65 1010.12 1009.56 1009.00 1008.48 1008.03
1024.99 1024.74 1024.43 1024.14 1023.91 1023.75 1023.63 1023.51 1023.34 1023.06 1022.66 1022.13 1021.51 1020.86 1020.25 1019.74 1019.37 1019.12 1018.98 1018.88 1018.75 1018.51 1018.11 1017.53 1016.80 1015.96 1015.08 1014.23 1013.49 1012.90 1012.48 1012.20 1012.02 1011.89 1011.75 1011.55 1011.26 1010.86 1010.36 1009.78 1009.17 1008.58 1008.03 1007.59
1025.71 1025.27 1024.81 1024.41 1024.15 1024.04 1024.05 1024.12 1024.15 1024.06 1023.78 1023.31 1022.64 1021.85 1021.01 1020.23 1019.55 1019.04 1018.67 1018.41 1018.20 1017.95 1017.59 1017.08 1016.41 1015.62 1014.77 1013.93 1013.16 1012.54 1012.08 1011.79 1011.61 1011.50 1011.39 1011.23 1010.96 1010.58 1010.07 1009.49 1008.86 1008.23 1007.68 1007.24
1026.50 1025.95 1025.41 1025.00 1024.80 1024.81 1024.99 1025.26 1025.49 1025.55 1025.35 1024.85 1024.06 1023.03 1021.89 1020.74 1019.71 1018.86 1018.22 1017.78 1017.46 1017.19 1016.88 1016.45 1015.87 1015.16 1014.35 1013.52 1012.75 1012.09 1011.60 1011.28 1011.10 1011.01 1010.94 1010.82 1010.61 1010.27 1009.81 1009.23 1008.61 1007.98 1007.42 1006.98
1027.30 1026.72 1026.21 1025.89 1025.82 1026.01 1026.40 1026.88 1027.27 1027.43 1027.25 1026.65 1025.65 1024.32 1022.80 1021.25 1019.80 1018.59 1017.66 1017.00 1016.58 1016.28 1016.00 1015.66 1015.18 1014.55 1013.80 1013.00 1012.22 1011.54 1011.02 1010.67 1010.48 1010.40 1010.38 1010.32 1010.19 1009.92 1009.52 1009.00 1008.40 1007.79 1007.23 1006.79
1027.98 1027.47 1027.09 1026.94 1027.08 1027.50 1028.12 1028.78 1029.31 1029.52 1029.27 1028.52 1027.26 1025.59 1023.67 1021.68 1019.83 1018.24 1017.01 1016.15 1015.60 1015.27 1015.03 1014.75 1014.36 1013.82 1013.14 1012.36 1011.59 1010.88 1010.32 1009.95 1009.75 1009.69 1009.70 1009.72 1009.67 1009.49 1009.17 1008.72 1008.18 1007.60 1007.06 1006.62
1028.45 1028.10 1027.92 1028.01 1028.40 1029.07 1029.90 1030.72 1031.33 1031.53 1031.18 1030.23 1028.69 1026.68 1024.38 1022.00 1019.77 1017.85 1016.35 1015.29 1014.63 1014.25 1014.02 1013.80 1013.48 1013.01 1012.37 1011.63 1010.85 1010.13 1009.54 1009.14 1008.93 1008.88 1008.93 1009.01 1009.04 1008.95 1008.72 1008.35 1007.87 1007.33 1006.81 1006.39
1028.65 1028.51 1028.58 1028.94 1029.59 1030.49 1031.50 1032.43 1033.06 1033.21 1032.74 1031.59 1029.79 1027.49 1024.87 1022.18 1019.64 1017.46 1015.74 1014.52 1013.75 1013.31 1013.07 1012.87 1012.59 1012.15 1011.55 1010.83 1010.05 1009.31 1008.70 1008.28 1008.05 1008.01 1008.08 1008.20 1008.29 1008.28 1008.12 1007.82 1007.41 1006.92 1006.45 1006.05
1028.61 1028.70 1029.03 1029.64 1030.52 1031.60 1032.72 1033.69 1034.30 1034.36 1033.74 1032.42 1030.43 1027.92 1025.09 1022.20 1019.47 1017.12 1015.25 1013.91 1013.04 1012.53 1012.25 1012.02 1011.74 1011.31 1010.71 1009.99 1009.22 1008.47 1007.85 1007.41 1007.17 1007.11 1007.19 1007.33 1007.44 1007.47 1007.37 1007.12 1006.76 1006.34 1005.91 1005.57
1028.43 1028.74 1029.30 1030.11 1031.15 1032.32 1033.47 1034.41 1034.93 1034.87 1034.13 1032.67 1030.56 1027.95 1025.04 1022.08 1019.29 1016.87 1014.93 1013.50 1012.54 1011.95 1011.58 1011.28 1010.94 1010.48 1009.87 1009.14 1008.36 1007.62 1007.00 1006.55 1006.31 1006.24 1006.30 1006.43 1006.54 1006.57 1006.49 1006.28 1005.96 1005.59 1005.24 1004.96
1028.27 1028.77 1029.49 1030.43 1031.53 1032.69 1033.77 1034.59 1034.97 1034.77 1033.90 1032.37 1030.23 1027.63 1024.76 1021.85 1019.11 1016.72 1014.76 1013.28 1012.24 1011.53 1011.04 1010.63 1010.19 1009.65 1009.00 1008.26 1007.49 1006.76 1006.16 1005.73 1005.48 1005.40 1005.44 1005.53 1005.61 1005.63 1005.53 1005.34 1005.06 1004.75 1004.47 1004.29
1028.28 1028.91 1029.73 1030.69 1031.75 1032.79 1033.70 1034.32 1034.50 1034.14 1033.17 1031.60 1029.51 1027.01 1024.29 1021.54 1018.95 1016.65 1014.73 1013.22 1012.08 1011.24 1010.58 1010.01 1009.42 1008.78 1008.06 1007.30 1006.55 1005.86 1005.30 1004.91 1004.68 1004.60 1004.61 1004.67 1004.71 1004.69 1004.57 1004.38 1004.13 1003.88 1003.70 1003.64
1028.56 1029.27 1030.09 1030.99 1031.89 1032.73 1033.38 1033.73 1033.67 1033.12 1032.06 1030.50 1028.51 1026.19 1023.69 1021.18 1018.78 1016.63 1014.77 1013.24 1012.00 1010.99 1010.13 1009.35 1008.59 1007.81 1007.01 1006.22 1005.49 1004.86 1004.37 1004.04 1003.86 1003.81 1003.82 1003.85 1003.86 1003.80 1003.67 1003.48 1003.27 1003.10 1003.03 1003.11
1029.12 1029.85 1030.60 1031.34 1032.02 1032.56 1032.89 1032.93 1032.60 1031.88 1030.74 1029.22 1027.36 1025.26 1023.03 1020.78 1018.62 1016.63 1014.84 1013.27 1011.91 1010.71 1009.62 1008.61 1007.63 1006.70 1005.80 1004.99 1004.29 1003.72 1003.33 1003.09 1002.99 1002.98 1003.03 1003.07 1003.06 1003.00 1002.87 1002.71 1002.56 1002.49 1002.54 1002.77
1029.88 1030.56 1031.18 1031.72 1032.11 1032.32 1032.30 1032.01 1031.43 1030.53 1029.34 1027.87 1026.17 1024.32 1022.37 1020.40 1018.47 1016.63 1014.90 1013.28 1011.78 1010.36 1009.03 1007.76 1006.56 1005.45 1004.45 1003.60 1002.92 1002.43 1002.14 1002.02 1002.02 1002.10 1002.21 1002.29 1002.32 1002.29 1002.21 1002.12 1002.06 1002.10 1002.29 1002.68
1030.64 1031.23 1031.70 1031.99 1032.08 1031.96 1031.61 1031.03 1030.21 1029.18 1027.96 1026.57 1025.05 1023.44 1021.76 1020.06 1018.34 1016.63 1014.94 1013.26 1011.61 1009.98 1008.38 1006.85 1005.42 1004.13 1003.01 1002.12 1001.45 1001.03 1000.84 1000.83 1000.95 1001.14 1001.35 1001.52 1001.64 1001.69 1001.70 1001.71 1001.78 1001.97 1002.31 1002.85
1031.17 1031.66 1031.95 1032.01 1031.83 1031.42 1030.80 1029.98 1029.00 1027.89 1026.69 1025.41 1024.07 1022.69 1021.27 1019.80 1018.27 1016.68 1015.01 1013.26 1011.46 1009.61 1007.78 1006.00 1004.34 1002.86 1001.63 1000.66 1000.00 999.62 999.51 999.60 999.84 1000.16 1000.48 1000.78 1001.01 1001.19 1001.34 1001.51 1001.73 1002.07 1002.57 1003.26
1031.29 1031.66 1031.78 1031.64 1031.25 1030.63 1029.82 1028.86 1027.80 1026.69 1025.56 1024.42 1023.28 1022.13 1020.94 1019.68 1018.31 1016.81 1015.15 1013.34 1011.40 1009.38 1007.33 1005.33 1003.46 1001.82 1000.45 999.41 998.71 998.35 998.29 998.46 998.80 999.22 999.67 1000.10 1000.49 1000.83 1001.15 1001.48 1001.88 1002.39 1003.05 1003.87
1030.88 1031.12 1031.10 1030.82 1030.30 1029.56 1028.67 1027.68 1026.64 1025.60 1024.60 1023.64 1022.71 1021.78 1020.80 1019.72 1018.49 1017.06 1015.42 1013.57 1011.53 1009.37 1007.15 1004.97 1002.94 1001.15 999.66 998.53 997.78 997.39 997.34 997.55 997.95 998.46 999.02 999.58 1000.11 1000.62 1001.12 1001.64 1002.22 1002.89 1003.69 1004.62
1029.92 1030.04 1029.91 1029.56 1028.98 1028.24 1027.38 1026.46 1025.53 1024.65 1023.84 1023.08 1022.36 1021.64 1020.86 1019.94 1018.83 1017.48 1015.86 1013.99 1011.90 1009.65 1007.32 1005.03 1002.88 1000.98 999.39 998.17 997.35 996.91 996.83 997.03 997.44 998.00 998.63 999.29 999.96 1000.62 1001.28 1001.97 1002.72 1003.54 1004.46 1005.49
1028.49 1028.51 1028.32 1027.94 1027.40 1026.74 1026.01 1025.25 1024.53 1023.87 1023.28 1022.75 1022.25 1021.72 1021.11 1020.32 1019.31 1018.03 1016.46 1014.61 1012.51 1010.23 1007.87 1005.53 1003.33 1001.36 999.70 998.41 997.51 997.00 996.85 997.01 997.39 997.95 998.61 999.33 1000.09 1000.87 1001.67 1002.50 1003.38 1004.32 1005.34 1006.43
1026.77 1026.70 1026.49 1026.15 1025.71 1025.20 1024.67 1024.15 1023.68 1023.28 1022.94 1022.64 1022.34 1021.98 1021.50 1020.83 1019.91 1018.69 1017.18 1015.37 1013.31 1011.07 1008.74 1006.43 1004.24 1002.26 1000.58 999.24 998.28 997.70 997.47 997.54 997.87 998.38 999.02 999.76 1000.56 1001.40 1002.29 1003.22 1004.20 1005.23 1006.31 1007.44
1024.95 1024.82 1024.61 1024.36 1024.07 1023.77 1023.49 1023.24 1023.06 1022.92 1022.82 1022.74 1022.61 1022.38 1022.01 1021.41 1020.55 1019.39 1017.94 1016.20 1014.23 1012.08 1009.85 1007.63 1005.51 1003.59 1001.93 1000.60 999.60 998.95 998.64 998.62 998.86 999.29 999.87 1000.58 1001.37 1002.24 1003.17 1004.14 1005.17 1006.25 1007.37 1008.53
1023.24 1023.07 1022.90 1022.76 1022.65 1022.58 1022.57 1022.61 1022.70 1022.81 1022.93 1023.02 1023.02 1022.89 1022.57 1022.01 1021.18 1020.07 1018.68 1017.02 1015.16 1013.14 1011.05 1008.98 1007.00 1005.19 1003.61 1002.31 1001.32 1000.64 1000.26 1000.16 1000.29 1000.63 1001.13 1001.77 1002.52 1003.36 1004.28 1005.26 1006.31 1007.40 1008.53 1009.68
Thickness
5565 5557 5553 5556 5557 5559 5557 5554 5552 5557 5563 5559 5557 5560 5566 5566 5564 5562 5561 5560 5561 5561 5562 5561 5560 5558 5557 5556 5556 5556 5556 5556 5556 5557 5560 5561 5563 5565 5567 5569 5572 5574 5575 5577
5552 5550 5557 5558 5555 5552 5551 5547 5546 5551 5555 5553 5550 5554 5559 5560 5559 5559 5557 5555 5555 5554 5553 5553 5552 5549 5548 5548 5548 5549 5549 5549 5549 5550 5552 5553 5554 5555 5558 5560 5563 5565 5566 5567
5549 5551 5556 5553 5548 5545 5545 5542 5542 5542 5544 5543 5540 5544 5549 5555 5556 5556 5555 5553 5550 5549 5547 5546 5544 5542 5541 5541 5541 5543 5542 5541 5541 5542 5543 5543 5543 5546 5547 5550 5553 5555 5556 5558
5542 5547 5548 5545 5543 5540 5537 5543 5541 5538 5528 5524 5529 5525 5541 5544 5547 5549 5548 5544 5543 5542 5541 5540 5538 5537 5535 5535 5535 5534 5534 5533 5533 5533 5532 5533 5533 5535 5538 5541 5543 5545 5547 5548
5536 5540 5539 5537 5538 5536 5533 5537 5534 5530 5522 5517 5519 5513 5530 5536 5537 5541 5541 5539 5538 5536 5535 5534 5533 5532 5530 5528 5527 5526 5525 5525 5524 5524 5523 5524 5525 5526 5528 5531 5533 5534 5536 5538
5529 5533 5533 5533 5533 5531 5528 5526 5522 5512 5506 5507 5514 5508 5520 5526 5533 5536 5537 5535 5533 5531 5529 5528 5527 5525 5523 5521 5519 5517 5516 5516 5516 5515 5514 5515 5516 5517 5519 5521 5523 5525 5527 5529
5519 5524 5526 5526 5523 5521 5517 5509 5500 5496 5492 5501 5508 5507 5520 5532 5533 5532 5532 5528 5526 5524 5522 5520 5519 5517 5515 5513 5511 5510 5509 5509 5508 5508 5507 5507 5508 5509 5511 5513 5514 5516 5518 5520
5505 5510 5517 5518 5516 5511 5508 5505 5493 5490 5487 5494 5501 5503 5521 5529 5528 5527 5525 5522 5519 5517 5515 5514 5512 5510 5507 5505 5504 5502 5502 5502 5501 5501 5501 5500 5501 5502 5503 5505 5506 5508 5510 5512
5498 5504 5512 5513 5512 5509 5503 5496 5497 5483 5478 5481 5491 5499 5515 5524 5522 5520 5518 5514 5511 5510 5508 5507 5506 5503 5501 5498 5496 5495 5495 5495 5494 5494 5495 5494 5494 5495 5497 5498 5498 5500 5502 5504
5498 5495 5502 5504 5506 5502 5499 5492 5480 5476 5478 5481 5491 5492 5504 5513 5512 5513 5510 5507 5505 5503 5501 5499 5498 5496 5494 5491 5490 5489 5488 5488 5488 5488 5488 5489 5489 5490 5490 5491 5491 5492 5493 5494
5492 5486 5490 5492 5493 5492 5489 5485 5480 5471 5470 5473 5477 5496 5510 5507 5507 5505 5504 5501 5497 5496 5494 5492 5489 5488 5486 5484 5483 5482 5482 5482 5483 5483 5483 5482 5483 5484 5484 5484 5485 5485 5486 5486
5485 5476 5475 5482 5488 5489 5486 5481 5472 5469 5466 5460 5463 5487 5508 5504 5502 5500 5497 5494 5491 5489 5487 5485 5482 5480 5478 5477 5477 5476 5476 5477 5478 5478 5477 5477 5477 5477 5477 5478 5479 5479 5479 5479
5480 5469 5469 5479 5479 5476 5475 5473 5469 5464 5457 5452 5457 5484 5500 5497 5496 5493 5489 5487 5483 5481 5480 5477 5475 5473 5472 5471 5471 5471 5471 5472 5472 5472 5471 5472 5472 5472 5472 5473 5473 5473 5473 5473
5477 5463 5466 5475 5479 5470 5466 5467 5465 5461 5454 5452 5462 5480 5492 5491 5487 5484 5481 5479 5476 5474 5472 5470 5468 5467 5466 5465 5465 5466 5467 5467 5467 5466 5466 5466 5467 5467 5467 5468 5467 5467 5467 5466
5468 5459 5457 5463 5467 5464 5464 5465 5462 5461 5459 5458 5472 5475 5488 5484 5479 5476 5473 5472 5472 5470 5467 5464 5462 5460 5459 5459 5460 5460 5460 5461 5461 5460 5460 5460 5461 5461 5461 5462 5461 5461 5460 5460
5457 5454 5453 5457 5462 5460 5461 5465 5462 5462 5462 5461 5466 5472 5479 5474 5471 5470 5467 5467 5465 5464 5462 5459 5456 5455 5454 5453 5453 5453 5454 5454 5453 5453 5453 5453 5454 5454 5454 5454 5454 5454 5454 5453
5447 5445 5445 5449 5450 5453 5458 5467 5464 5463 5464 5463 5465 5473 5470 5467 5466 5465 5463 5460 5458 5457 5455 5453 5451 5450 5448 5447 5447 5447 5448 5447 5446 5446 5446 5446 5447 5447 5447 5447 5447 5447 5446 5445
5441 5438 5433 5435 5439 5446 5473 5471 5469 5465 5466 5464 5465 5466 5464 5463 5462 5460 5457 5453 5451 5451 5449 5447 5445 5444 5443 5442 5442 5441 5441 5440 5440 5440 5439 5439 5439 5440 5440 5439 5439 5438 5438 5437
5439 5434 5427 5425 5430 5445 5465 5470 5464 5460 5461 5463 5461 5460 5458 5456 5455 5454 5453 5449 5447 5445 5443 5440 5438 5437 5437 5436 5435 5434 5434 5434 5433 5433 5433 5433 5433 5433 5433 5431 5430 5430 5429 5428
5431 5428 5423 5421 5429 5442 5470 5467 5462 5457 5456 5461 5457 5454 5451 5449 5446 5451 5449 5444 5442 5440 5437 5435 5433 5431 5430 5429 5429 5428 5427 5427 5427 5427 5427 5426 5426 5425 5425 5424 5422 5422 5420 5419
5425 5421 5420 5419 5423 5442 5459 5457 5457 5453 5461 5460 5455 5451 5447 5443 5444 5444 5441 5438 5437 5434 5431 5430 5428 5425 5424 5423 5422 5422 5421 5421 5421 5421 5420 5420 5419 5418 5416 5415 5415 5414 5413 5412
5427 5420 5415 5413 5419 5442 5455 5450 5450 5454 5455 5452 5450 5447 5443 5440 5438 5436 5434 5432 5430 5427 5425 5424 5422 5420 5419 5417 5416 5415 5415 5416 5415 5415 5414 5413 5412 5410 5409 5408 5407 5406 5406 5404
5428 5433 5430 5432 5447 5453 5448 5450 5451 5448 5447 5446 5443 5441 5438 5434 5432 5431 5428 5426 5424 5422 5419 5418 5416 5414 5413 5411 5410 5409 5410 5409 5409 5408 5407 5406 5404 5403 5402 5401 5400 5399 5398 5397
5429 5429 5427 5428 5442 5445 5443 5443 5444 5442 5442 5441 5438 5436 5434 5430 5427 5425 5422 5420 5418 5416 5414 5412 5410 5408 5407 5406 5406 5405 5405 5403 5402 5401 5400 5399 5398 5396 5395 5394 5393 5392 5391 5390
5432 5425 5424 5428 5439 5440 5444 5441 5441 5439 5436 5434 5433 5431 5428 5425 5422 5419 5416 5414 5413 5411 5408 5406 5404 5403 5402 5401 5400 5400 5400 5398 5396 5395 5395 5394 5393 5390 5389 5387 5386 5385 5385 5385
5429 5427 5429 5441 5444 5439 5443 5442 5438 5434 5432 5429 5427 5425 5423 5420 5417 5414 5411 5409 5407 5405 5403 5401 5399 5398 5396 5395 5395 5395 5394 5393 5391 5390 5389 5388 5387 5386 5383 5381 5379 5378 5378 5379